Weather History for KSFQ - September, 2013

Change the Weather History Date:

Monday, September 23, 2013

  Actual Average Record
Temperature  
Mean Temperature 60 °F -  
Max Temperature 68 °F 77 °F 96 °F (2010)
Min Temperature 51 °F 57 °F 41 °F (1983)
Degree Days  
Heating Degree Days 6    
Growing Degree Days 10 (Base 50)    
Moisture  
Dew Point 54 °F    
Average Humidity 82    
Maximum Humidity 100    
Minimum Humidity 56    
Precipitation  
Precipitation 0.00 in - - ()
Sea Level Pressure  
Sea Level Pressure 30.02 in    
Wind  
Wind Speed 3 mph (North)    
Max Wind Speed 12 mph    
Max Gust Speed 17 mph    
Visibility 10 miles    
Events      
Averages and records for this station are not official NWS values.
T = Trace of Precipitation, MM = Missing Value Source: NWS Daily Summary

Daily Weather History Graph

Daily Weather History Graph

Search for Another Location

Airport or City:

Trip Planner

Search our weather history database for the weather conditions in past years. The results will help you decide how hot, cold, wet, or windy it might be!

Date:

Astronomy

Sep. 23, 2013 Rise Set
Actual Time 6:55 AM EDT 7:01 PM EDT
Civil Twilight 6:29 AM EDT 7:27 PM EDT
Nautical Twilight 5:59 AM EDT 7:57 PM EDT
Astronomical Twilight 5:28 AM EDT 8:27 PM EDT
Moon 9:39 PM EDT (9/23) 11:05 AM EDT (9/23)
Length of Visible Light 12h 57m
Length of Day
12h 06m
Waning Gibbous, 81% of the Moon is Illuminated
Sep 23
Waning Gibbous
Sep 26
Last Quarter
Oct 4
New
Oct 11
First Quarter
Oct 18
Full

Hourly Weather History & Observations

Time (EDT) Temp. Dew Point Humidity Pressure Visibility Wind Dir Wind Speed Gust Speed Precip Events Conditions
12:15 AM 59.0 °F 57.2 °F 94% 29.90 in 10.0 mi Calm Calm - N/A   Clear
12:35 AM 59.0 °F 57.2 °F 94% 29.90 in 10.0 mi Calm Calm - N/A   Clear
12:55 AM 60.8 °F 57.2 °F 88% 29.90 in 10.0 mi Calm Calm - N/A   Clear
1:15 AM 60.8 °F 57.2 °F 88% 29.91 in 10.0 mi NNW 3.5 mph - N/A   Clear
1:35 AM 60.8 °F 57.2 °F 88% 29.91 in 10.0 mi North 3.5 mph - N/A   Clear
1:55 AM 59.0 °F 57.2 °F 94% 29.92 in 10.0 mi Calm Calm - N/A   Clear
2:15 AM 57.2 °F 57.2 °F 100% 29.92 in 10.0 mi Calm Calm - N/A   Clear
2:35 AM 55.4 °F 55.4 °F 100% 29.93 in 10.0 mi Calm Calm - N/A   Clear
2:55 AM 57.2 °F 55.4 °F 94% 29.93 in 10.0 mi Calm Calm - N/A   Clear
3:15 AM 55.4 °F 55.4 °F 100% 29.93 in 10.0 mi Calm Calm - N/A   Clear
3:35 AM 57.2 °F 57.2 °F 100% 29.93 in 10.0 mi NW 3.5 mph - N/A   Clear
3:55 AM 57.2 °F 57.2 °F 100% 29.93 in 10.0 mi NW 3.5 mph - N/A   Clear
4:15 AM 57.2 °F 57.2 °F 100% 29.93 in 10.0 mi Calm Calm - N/A   Clear
4:35 AM 57.2 °F 55.4 °F 94% 29.94 in 10.0 mi Calm Calm - N/A   Clear
4:55 AM 57.2 °F 55.4 °F 94% 29.94 in 10.0 mi Calm Calm - N/A   Clear
5:15 AM 57.2 °F 55.4 °F 94% 29.95 in 10.0 mi NW 4.6 mph - N/A   Clear
5:35 AM 57.2 °F 55.4 °F 94% 29.95 in 10.0 mi NNW 3.5 mph - N/A   Clear
5:55 AM 57.2 °F 55.4 °F 94% 29.96 in 10.0 mi NW 3.5 mph - N/A   Clear
6:15 AM 55.4 °F 55.4 °F 100% 29.97 in 10.0 mi NW 4.6 mph - N/A   Clear
6:35 AM 55.4 °F 55.4 °F 100% 29.97 in 10.0 mi NNW 3.5 mph - N/A   Clear
6:55 AM 55.4 °F 55.4 °F 100% 29.99 in 10.0 mi NNW 3.5 mph - N/A   Clear
7:15 AM 55.4 °F 55.4 °F 100% 30.00 in 10.0 mi NW 4.6 mph - N/A   Clear
8:15 AM 59.0 °F 55.4 °F 88% 30.02 in 10.0 mi NNW 4.6 mph - N/A   Clear
8:35 AM 60.8 °F 57.2 °F 88% 30.02 in 10.0 mi North 4.6 mph - N/A   Clear
8:55 AM 62.6 °F 55.4 °F 77% 30.04 in 10.0 mi North 3.5 mph - N/A   Clear
9:15 AM 62.6 °F 55.4 °F 77% 30.04 in 10.0 mi North 4.6 mph - N/A   Scattered Clouds
9:35 AM 62.6 °F 55.4 °F 77% 30.05 in 10.0 mi NNE 10.4 mph - N/A   Clear
9:55 AM 64.4 °F 53.6 °F 68% 30.06 in 10.0 mi NNE 10.4 mph 16.1 mph N/A   Scattered Clouds
10:15 AM 62.6 °F 53.6 °F 72% 30.06 in 10.0 mi North 9.2 mph 17.3 mph N/A   Scattered Clouds
10:35 AM 66.2 °F 53.6 °F 64% 30.05 in 10.0 mi NNE 10.4 mph 17.3 mph N/A   Mostly Cloudy
10:55 AM 64.4 °F 53.6 °F 68% 30.06 in 10.0 mi NNE 11.5 mph - N/A   Mostly Cloudy
11:15 AM 66.2 °F 55.4 °F 68% 30.06 in 10.0 mi NNE 10.4 mph - N/A   Mostly Cloudy
11:35 AM 64.4 °F 53.6 °F 68% 30.06 in 7.0 mi NNE 11.5 mph 16.1 mph N/A   Mostly Cloudy
11:55 AM 64.4 °F 51.8 °F 64% 30.07 in 10.0 mi North 6.9 mph - N/A   Mostly Cloudy
12:15 PM 66.2 °F 53.6 °F 64% 30.06 in 10.0 mi NE 10.4 mph 16.1 mph N/A   Mostly Cloudy
12:35 PM 64.4 °F 51.8 °F 64% 30.06 in 10.0 mi NNW 8.1 mph - N/A   Mostly Cloudy
12:55 PM 66.2 °F 51.8 °F 60% 30.06 in 10.0 mi North 8.1 mph - N/A   Scattered Clouds
1:15 PM 66.2 °F 51.8 °F 60% 30.05 in 10.0 mi North 5.8 mph - N/A   Scattered Clouds
1:35 PM 68.0 °F 51.8 °F 56% 30.05 in 10.0 mi NNW 6.9 mph - N/A   Scattered Clouds
1:55 PM 66.2 °F 51.8 °F 60% 30.05 in 10.0 mi NNW 6.9 mph - N/A   Scattered Clouds
2:15 PM 68.0 °F 51.8 °F 56% 30.05 in 10.0 mi NNW 8.1 mph - N/A   Scattered Clouds
2:35 PM 68.0 °F 51.8 °F 56% 30.04 in 10.0 mi NE 6.9 mph - N/A   Scattered Clouds
2:55 PM 68.0 °F 51.8 °F 56% 30.03 in 10.0 mi North 3.5 mph - N/A   Scattered Clouds
3:15 PM 66.2 °F 51.8 °F 60% 30.03 in 10.0 mi NNE 5.8 mph - N/A   Mostly Cloudy
3:35 PM 68.0 °F 53.6 °F 60% 30.03 in 10.0 mi WNW 9.2 mph - N/A   Scattered Clouds
3:55 PM 68.0 °F 51.8 °F 56% 30.03 in 10.0 mi North 4.6 mph - N/A   Mostly Cloudy
4:15 PM 68.0 °F 51.8 °F 56% 30.03 in 10.0 mi NW 9.2 mph - N/A   Mostly Cloudy
4:35 PM 68.0 °F 53.6 °F 60% 30.04 in 10.0 mi North 6.9 mph - N/A   Overcast
4:55 PM 68.0 °F 51.8 °F 56% 30.04 in 10.0 mi NW 5.8 mph - N/A   Overcast
5:15 PM 68.0 °F 51.8 °F 56% 30.04 in 10.0 mi NW 5.8 mph - N/A   Mostly Cloudy
5:35 PM 66.2 °F 51.8 °F 60% 30.04 in 10.0 mi NW 4.6 mph - N/A   Clear
5:55 PM 66.2 °F 51.8 °F 60% 30.04 in 10.0 mi North 3.5 mph - N/A   Clear
6:15 PM 66.2 °F 53.6 °F 64% 30.04 in 10.0 mi North 3.5 mph - N/A   Clear
6:35 PM 64.4 °F 53.6 °F 68% 30.05 in 10.0 mi Calm Calm - N/A   Clear
6:55 PM 62.6 °F 55.4 °F 77% 30.05 in 10.0 mi Calm Calm - N/A   Clear
7:15 PM 59.0 °F 55.4 °F 88% 30.05 in 10.0 mi Calm Calm - N/A   Clear
7:35 PM 57.2 °F 55.4 °F 94% 30.06 in 10.0 mi Calm Calm - N/A   Clear
7:55 PM 57.2 °F 55.4 °F 94% 30.06 in 10.0 mi Calm Calm - N/A   Clear
8:15 PM 57.2 °F 55.4 °F 94% 30.06 in 10.0 mi Calm Calm - N/A   Clear
8:35 PM 55.4 °F 53.6 °F 94% 30.07 in 10.0 mi Calm Calm - N/A   Clear
8:55 PM 55.4 °F 55.4 °F 100% 30.07 in 10.0 mi Calm Calm - N/A   Clear
9:15 PM 53.6 °F 53.6 °F 100% 30.08 in 10.0 mi Calm Calm - N/A   Clear
9:35 PM 53.6 °F 53.6 °F 100% 30.08 in 10.0 mi Calm Calm - N/A   Clear
9:55 PM 53.6 °F 53.6 °F 100% 30.09 in 10.0 mi Calm Calm - N/A   Clear
10:15 PM 53.6 °F 53.6 °F 100% 30.09 in 10.0 mi Calm Calm - N/A   Clear
10:35 PM 53.6 °F 53.6 °F 100% 30.10 in 10.0 mi Calm Calm - N/A   Clear
10:55 PM 53.6 °F 53.6 °F 100% 30.10 in 10.0 mi Calm Calm - N/A   Clear
11:15 PM 53.6 °F 51.8 °F 94% 30.10 in 10.0 mi Calm Calm - N/A   Clear
11:35 PM 51.8 °F 51.8 °F 100% 30.09 in 10.0 mi Calm Calm - N/A   Clear
11:55 PM 51.8 °F 51.8 °F 100% 30.09 in 10.0 mi Calm Calm - N/A   Clear